User: anonymous   Login
Location: Newark
(49.5647°N, 8.2922°E)
Time: 21:14:50
(UTC+00:00)
Language:

SR - Orbit

View from above orbital plane
View from above orbital plane
View from above satellite
View from above satellite

Ground track
Ground track

The orbit data is extracted from the following two-line orbital elements,

1    46U 60007B   20048.14550206 -.00000084  00000-0  67835-5 0  9997
2    46  66.6915  14.2820 0215173 223.1555 135.2517 14.49273907121525
Epoch (UTC): 17 February 2020 03:29:31
Eccentricity: 0.0215173
inclination: 66.6915°
perigee height: 575 km
apogee height: 881 km
right ascension of ascending node: 14.2820°
argument of perigee: 223.1555°
revolutions per day: 14.49273907
mean anomaly at epoch: 135.2517°
orbit number at epoch: 12152

The dashed part of the orbit path shows where the satellite is in the earth's shadow,  

DLR